Hourly Weather Rudamina

Today, 8 May, Saturday

Time Temperature Precipitation Wind Pressure Humidity
00:00 +2°C° 0 mm 2 mps 740 mmHg 94%
01:00 +1°C° 0 mm 2 mps 740 mmHg 94%
02:00 +1°C° 0 mm 2 mps 740 mmHg 94%
03:00 0°C° 0 mm 3 mps 741 mmHg 95%
04:00 -1°C° 0 mm 3 mps 741 mmHg 96%
05:00 -1°C° 0 mm 3 mps 742 mmHg 97%
06:00 0°C° 0 mm 3 mps 742 mmHg 93%
07:00 0°C° 0 mm 4 mps 743 mmHg 88%
08:00 +1°C° 0 mm 5 mps 743 mmHg 84%
09:00 +2°C° 0 mm 5 mps 744 mmHg 74%
10:00 +5°C° 0 mm 5 mps 744 mmHg 65%
11:00 +6°C° 0 mm 5 mps 744 mmHg 56%
12:00 +6°C° 0 mm 5 mps 745 mmHg 53%
13:00 +7°C° 0 mm 5 mps 745 mmHg 50%
14:00 +8°C° 0 mm 5 mps 745 mmHg 47%
15:00 +7°C° 0.2 mm 5 mps 745 mmHg 54%
16:00 +7°C° 0.2 mm 5 mps 746 mmHg 61%
17:00 +7°C° 0.2 mm 4 mps 746 mmHg 67%
18:00 +6°C° 0.2 mm 4 mps 746 mmHg 74%
19:00 +4°C° 0.2 mm 3 mps 747 mmHg 81%
20:00 +4°C° 0.2 mm 2 mps 747 mmHg 88%
21:00 +3°C° 0 mm 2 mps 748 mmHg 90%
22:00 +3°C° 0 mm 2 mps 748 mmHg 92%
23:00 +2°C° 0 mm 2 mps 748 mmHg 94%

Tomorrow, 9 May, Sunday

Time Temperature Precipitation Wind Pressure Humidity
00:00 +2°C° 0 mm 2 mps 749 mmHg 94%
01:00 +1°C° 0 mm 2 mps 749 mmHg 95%
02:00 +1°C° 0 mm 2 mps 750 mmHg 95%
03:00 +1°C° 0 mm 2 mps 750 mmHg 96%
04:00 +1°C° 0 mm 2 mps 750 mmHg 96%
05:00 +1°C° 0 mm 2 mps 751 mmHg 97%
06:00 +2°C° 0 mm 2 mps 751 mmHg 91%
07:00 +4°C° 0 mm 2 mps 751 mmHg 85%
08:00 +6°C° 0 mm 2 mps 752 mmHg 80%
09:00 +8°C° 0 mm 2 mps 752 mmHg 69%
10:00 +9°C° 0 mm 3 mps 752 mmHg 58%
11:00 +11°C° 0 mm 3 mps 752 mmHg 48%
12:00 +11°C° 0 mm 3 mps 752 mmHg 45%
13:00 +12°C° 0 mm 3 mps 752 mmHg 42%
14:00 +13°C° 0 mm 4 mps 752 mmHg 40%
15:00 +13°C° 0 mm 4 mps 751 mmHg 43%
16:00 +13°C° 0 mm 4 mps 751 mmHg 47%
17:00 +13°C° 0 mm 4 mps 751 mmHg 50%
18:00 +12°C° 0 mm 4 mps 751 mmHg 57%
19:00 +10°C° 0 mm 4 mps 751 mmHg 63%
20:00 +9°C° 0 mm 3 mps 751 mmHg 69%
21:00 +8°C° 0 mm 4 mps 751 mmHg 70%
22:00 +8°C° 0 mm 4 mps 752 mmHg 70%
23:00 +7°C° 0 mm 4 mps 752 mmHg 71%

Day after tomorrow, 10 May, Monday

Time Temperature Precipitation Wind Pressure Humidity
00:00 +7°C° 0 mm 4 mps 752 mmHg 72%
01:00 +7°C° 0 mm 4 mps 752 mmHg 74%
02:00 +6°C° 0 mm 4 mps 752 mmHg 75%
03:00 +6°C° 0 mm 4 mps 752 mmHg 77%
04:00 +6°C° 0 mm 4 mps 752 mmHg 79%
05:00 +5°C° 0 mm 4 mps 752 mmHg 80%
06:00 +7°C° 0 mm 4 mps 753 mmHg 76%
07:00 +9°C° 0 mm 5 mps 753 mmHg 71%
08:00 +10°C° 0 mm 5 mps 753 mmHg 67%
09:00 +13°C° 0 mm 5 mps 753 mmHg 62%
10:00 +15°C° 0 mm 6 mps 753 mmHg 58%
11:00 +16°C° 0 mm 6 mps 753 mmHg 53%
12:00 +17°C° 0 mm 6 mps 753 mmHg 52%
13:00 +19°C° 0 mm 6 mps 753 mmHg 51%
14:00 +19°C° 0 mm 6 mps 753 mmHg 50%
15:00 +19°C° 0 mm 6 mps 753 mmHg 53%
16:00 +19°C° 0 mm 6 mps 752 mmHg 55%
17:00 +17°C° 0 mm 6 mps 752 mmHg 58%
18:00 +16°C° 0 mm 5 mps 752 mmHg 62%
19:00 +15°C° 0 mm 5 mps 752 mmHg 66%
20:00 +13°C° 0 mm 4 mps 753 mmHg 70%
21:00 +12°C° 0 mm 4 mps 753 mmHg 71%
22:00 +12°C° 0 mm 5 mps 753 mmHg 73%
23:00 +10°C° 0 mm 5 mps 753 mmHg 74%

11 May, Tuesday

Time Temperature Precipitation Wind Pressure Humidity
00:00 +10°C° 0 mm 5 mps 753 mmHg 74%
01:00 +9°C° 0 mm 5 mps 753 mmHg 74%
02:00 +9°C° 0 mm 5 mps 753 mmHg 73%
03:00 +9°C° 0 mm 5 mps 753 mmHg 75%
04:00 +8°C° 0 mm 5 mps 753 mmHg 76%
05:00 +8°C° 0 mm 5 mps 753 mmHg 78%
06:00 +9°C° 0 mm 5 mps 753 mmHg 74%
07:00 +11°C° 0 mm 6 mps 753 mmHg 71%
08:00 +13°C° 0 mm 6 mps 753 mmHg 67%
09:00 +15°C° 0 mm 7 mps 753 mmHg 62%
10:00 +16°C° 0 mm 7 mps 753 mmHg 57%
11:00 +17°C° 0 mm 7 mps 753 mmHg 52%
12:00 +18°C° 0 mm 7 mps 752 mmHg 50%
13:00 +20°C° 0 mm 7 mps 752 mmHg 49%
14:00 +20°C° 0 mm 7 mps 752 mmHg 47%
15:00 +20°C° 0 mm 7 mps 752 mmHg 50%
16:00 +20°C° 0 mm 6 mps 752 mmHg 52%
17:00 +19°C° 0 mm 6 mps 752 mmHg 54%
18:00 +17°C° 0 mm 5 mps 751 mmHg 59%
19:00 +15°C° 0 mm 5 mps 751 mmHg 63%
20:00 +14°C° 0 mm 5 mps 751 mmHg 68%
21:00 +13°C° 0 mm 5 mps 751 mmHg 69%
22:00 +12°C° 0 mm 5 mps 751 mmHg 70%
23:00 +12°C° 0 mm 5 mps 751 mmHg 71%

12 May, Wednesday

Time Temperature Precipitation Wind Pressure Humidity
00:00 +11°C° 0 mm 4 mps 751 mmHg 73%
01:00 +10°C° 0 mm 4 mps 751 mmHg 75%
02:00 +10°C° 0 mm 4 mps 751 mmHg 77%
03:00 +8°C° 0 mm 4 mps 751 mmHg 80%
04:00 +8°C° 0 mm 4 mps 751 mmHg 82%
05:00 +8°C° 0 mm 4 mps 751 mmHg 84%
06:00 +11°C° 0 mm 4 mps 751 mmHg 79%
07:00 +12°C° 0 mm 4 mps 751 mmHg 75%
08:00 +14°C° 0 mm 5 mps 751 mmHg 71%
09:00 +16°C° 0 mm 5 mps 750 mmHg 67%
10:00 +17°C° 0 mm 6 mps 750 mmHg 63%
11:00 +20°C° 0 mm 6 mps 750 mmHg 59%
12:00 +21°C° 0 mm 6 mps 750 mmHg 57%
13:00 +21°C° 0 mm 6 mps 749 mmHg 55%
14:00 +22°C° 0 mm 6 mps 749 mmHg 54%
15:00 +22°C° 0 mm 6 mps 749 mmHg 56%
16:00 +22°C° 0 mm 6 mps 749 mmHg 57%
17:00 +22°C° 0 mm 5 mps 748 mmHg 59%
18:00 +20°C° 0 mm 5 mps 748 mmHg 65%
19:00 +17°C° 0 mm 5 mps 748 mmHg 72%
20:00 +17°C° 0 mm 4 mps 748 mmHg 78%
21:00 +15°C° 0 mm 4 mps 748 mmHg 79%
22:00 +14°C° 0 mm 4 mps 749 mmHg 81%
23:00 +13°C° 0 mm 4 mps 749 mmHg 82%

13 May, Thursday

Time Temperature Precipitation Wind Pressure Humidity
00:00 +12°C° 0 mm 4 mps 749 mmHg 87%
01:00 +11°C° 0 mm 3 mps 749 mmHg 91%
02:00 +10°C° 0 mm 3 mps 749 mmHg 95%
03:00 +9°C° 0 mm 3 mps 749 mmHg 96%
04:00 +9°C° 0 mm 2 mps 748 mmHg 96%
05:00 +9°C° 0 mm 2 mps 748 mmHg 97%
06:00 +10°C° 0 mm 3 mps 748 mmHg 89%
07:00 +12°C° 0 mm 3 mps 748 mmHg 81%
08:00 +14°C° 0 mm 3 mps 747 mmHg 73%
09:00 +14°C° 0 mm 4 mps 747 mmHg 72%
10:00 +15°C° 0 mm 4 mps 747 mmHg 71%
11:00 +17°C° 0 mm 4 mps 746 mmHg 70%
12:00 +17°C° 0.3 mm 4 mps 745 mmHg 73%
13:00 +17°C° 0.3 mm 4 mps 745 mmHg 76%
14:00 +17°C° 0.3 mm 4 mps 744 mmHg 79%
15:00 +16°C° 0.8 mm 3 mps 743 mmHg 83%
16:00 +16°C° 0.8 mm 3 mps 743 mmHg 88%
17:00 +15°C° 0.8 mm 2 mps 742 mmHg 92%
18:00 +15°C° 0.9 mm 2 mps 741 mmHg 93%
19:00 +13°C° 0.9 mm 3 mps 741 mmHg 94%
20:00 +13°C° 0.9 mm 3 mps 740 mmHg 95%
21:00 +12°C° 1.3 mm 4 mps 740 mmHg 95%
22:00 +12°C° 1.3 mm 5 mps 740 mmHg 95%
23:00 +10°C° 1.3 mm 6 mps 739 mmHg 95%
Show more